Eddersheim, Germany

12:51 AM CEST on October 20, 2017 (GMT +0200)
Eddersheim

Weather History for 10637 - February, 2014

Change the Weather History Date:

Wednesday, February 5, 2014

  Actual Average Record
Temperature  
Mean Temperature 35 °F -  
Max Temperature 41 °F 43 °F - ()
Min Temperature 31 °F 32 °F - ()
Degree Days  
Heating Degree Days 30    
Moisture  
Dew Point 35 °F    
Average Humidity 95    
Maximum Humidity 100    
Minimum Humidity 78    
Precipitation  
Precipitation 0.12 in - - ()
Sea Level Pressure  
Sea Level Pressure 29.62 in    
Wind  
Wind Speed 6 mph ()    
Max Wind Speed 12 mph    
Max Gust Speed -    
Visibility 4.8 miles    
Events Rain    
T = Trace of Precipitation, MM = Missing Value Source: Averaged Metar Reports

Daily Weather History Graph

Daily Weather History Graph

Search for Another Location

Airport or City:

Trip Planner

Search our weather history database for the weather conditions in past years. The results will help you decide how hot, cold, wet, or windy it might be!

Date:

Astronomy

Feb. 05, 2014 Rise Set
Actual Time 7:53 AM CET 5:26 PM CET
Civil Twilight 7:19 AM CET 6:00 PM CET
Nautical Twilight 6:40 AM CET 6:39 PM CET
Astronomical Twilight 6:02 AM CET 7:17 PM CET
Moon 10:17 AM CET (2/5) No Moon Set
Length of Visible Light 10h 41m
Length of Day
9h 32m
Waxing Crescent, 36% of the Moon is Illuminated
Feb 5
Waxing Crescent
Feb 6
First Quarter
Feb 15
Full
Feb 22
Last Quarter
Mar 1
New

Hourly Weather History & Observations

Time (CET) Temp. Windchill Dew Point Humidity Pressure Visibility Wind Dir Wind Speed Gust Speed Precip Events Conditions
12:00 AM 34 °F - 33 °F 92% 29.78 in 7 mi NNE 4.5 mph - -   Clear
12:20 AM 33.8 °F 26.4 °F 33.8 °F 100% 29.74 in - NE 9.2 mph - N/A   Clear
12:50 AM 33.8 °F 27.0 °F 33.8 °F 100% 29.74 in - NE 8.1 mph - N/A   Clear
1:00 AM 33 °F - 32 °F 94% 29.76 in 6 mi NE 4.5 mph - -  
1:20 AM 32.0 °F 25.6 °F 32.0 °F 100% 29.74 in - NNE 6.9 mph - N/A   Clear
1:50 AM 32.0 °F 25.6 °F 32.0 °F 100% 29.71 in - NNE 6.9 mph - N/A   Clear
2:00 AM 32 °F - 31 °F 96% 29.74 in 6 mi NNE 4.5 mph - -  
2:20 AM 32.0 °F 25.6 °F 32.0 °F 100% 29.71 in - NE 6.9 mph - N/A   Clear
2:50 AM 32.0 °F 25.6 °F 32.0 °F 100% 29.68 in - NNE 6.9 mph - N/A   Clear
3:00 AM 33 °F - 31 °F 92% 29.73 in 6 mi NNE 4.5 mph - -  
3:20 AM 33.8 °F 28.6 °F 33.8 °F 100% 29.68 in - NNE 5.8 mph - N/A   Clear
3:50 AM 32.0 °F 26.4 °F 32.0 °F 100% 29.68 in 6.2 mi North 5.8 mph - N/A   Scattered Clouds
4:20 AM 32.0 °F 24.8 °F 32.0 °F 100% 29.68 in 5.6 mi NE 8.1 mph - N/A   Mostly Cloudy
4:50 AM 32.0 °F 24.2 °F 32.0 °F 100% 29.65 in 5.6 mi NE 9.2 mph - N/A   Mostly Cloudy
5:00 AM 33 °F - 32 °F 92% 29.68 in 6 mi NE 4.5 mph - -   Mostly Cloudy
5:20 AM 33.8 °F 25.3 °F 33.8 °F 100% 29.62 in 5.0 mi ENE 11.5 mph - N/A   Overcast
5:50 AM 33.8 °F 26.4 °F 33.8 °F 100% 29.62 in 5.0 mi ENE 9.2 mph - N/A   Mostly Cloudy
6:00 AM 33 °F - 31 °F 92% 29.66 in 5 mi East 6.7 mph - -   Mostly Cloudy
6:20 AM 33.8 °F 26.4 °F 32.0 °F 93% 29.62 in 5.0 mi ENE 9.2 mph - N/A   Mostly Cloudy
6:50 AM 33.8 °F 28.6 °F 32.0 °F 93% 29.62 in 5.0 mi ENE 5.8 mph - N/A   Mostly Cloudy
7:00 AM 33 °F - 31 °F 91% 29.66 in 5 mi East 4.5 mph - -   Mostly Cloudy
7:20 AM 33.8 °F 27.0 °F 32.0 °F 93% 29.62 in 4.3 mi ENE 8.1 mph - N/A   Mostly Cloudy
7:50 AM 33.8 °F 27.0 °F 32.0 °F 93% 29.62 in 3.7 mi NE 8.1 mph - N/A   Mostly Cloudy
8:00 AM 34 °F - 31 °F 85% 29.64 in 4 mi NE 4.5 mph - -   Mist
8:20 AM 33.8 °F 27.7 °F 32.0 °F 93% 29.62 in 3.7 mi ENE 6.9 mph - N/A   Mostly Cloudy
8:50 AM 33.8 °F 30.8 °F 32.0 °F 93% 29.62 in 3.7 mi NE 3.5 mph - N/A   Mostly Cloudy
9:00 AM 34 °F - 31 °F 85% 29.65 in 4 mi ESE 2.2 mph - -   Mist
9:20 AM 33.8 °F 29.6 °F 32.0 °F 93% 29.62 in 3.7 mi East 4.6 mph - N/A   Mostly Cloudy
9:50 AM 35.6 °F 31.7 °F 32.0 °F 87% 29.62 in 4.3 mi East 4.6 mph - N/A   Mostly Cloudy
10:20 AM 35.6 °F - 32.0 °F 87% 29.62 in 4.3 mi Variable 2.3 mph - N/A   Mostly Cloudy
10:50 AM 35.6 °F 32.8 °F 32.0 °F 87% 29.59 in 5.0 mi SSE 3.5 mph - N/A   Mostly Cloudy
11:00 AM 36 °F - 32 °F 78% 29.63 in 5 mi SSE 4.5 mph - -   Overcast
11:20 AM 37.4 °F 33.8 °F 32.0 °F 81% 29.59 in 4.3 mi ESE 4.6 mph - N/A Rain Light Rain
11:50 AM 37.4 °F 33.8 °F 33.8 °F 87% 29.59 in 3.7 mi East 4.6 mph - N/A Rain Rain
12:00 PM 37 °F - 33 °F 82% 29.61 in 4 mi East 4.5 mph - - Rain Rain
12:20 PM 37.4 °F 31.4 °F 35.6 °F 93% 29.56 in 4.3 mi ENE 8.1 mph - N/A Rain Rain
12:50 PM 37.4 °F 30.8 °F 37.4 °F 100% 29.56 in 4.3 mi East 9.2 mph - N/A Rain Light Rain
1:00 PM 37 °F - 35 °F 90% 29.58 in 4 mi East 4.5 mph - - Rain Light Rain
1:20 PM 37.4 °F 32.1 °F 37.4 °F 100% 29.53 in 4.3 mi East 6.9 mph - N/A Rain Light Rain
1:50 PM 37.4 °F 32.8 °F 37.4 °F 100% 29.53 in 3.7 mi ESE 5.8 mph - N/A Rain Rain
2:00 PM 38 °F - 36 °F 88% 29.57 in 4 mi ESE 4.5 mph - - Rain Rain
2:20 PM 37.4 °F 33.8 °F 37.4 °F 100% 29.53 in 3.7 mi East 4.6 mph - N/A Rain Rain
2:50 PM 37.4 °F 33.8 °F 37.4 °F 100% 29.53 in 3.1 mi East 4.6 mph - N/A Rain Rain
3:00 PM 38 °F - 36 °F 92% 29.56 in 3 mi East 2.2 mph - - Rain Rain
3:20 PM 37.4 °F - 37.4 °F 100% 29.53 in 3.1 mi ESE 2.3 mph - N/A Rain Rain
3:50 PM 39.2 °F 37.0 °F 39.2 °F 100% 29.53 in 3.1 mi East 3.5 mph - N/A Rain Rain
4:20 PM 39.2 °F 37.0 °F 39.2 °F 100% 29.53 in 3.7 mi Variable 3.5 mph - N/A Rain Light Rain
4:50 PM 39.2 °F - 39.2 °F 100% 29.53 in 3.7 mi Variable 2.3 mph - N/A Rain Light Rain
5:00 PM 38 °F - 37 °F 96% 29.56 in 4 mi SE 2.2 mph - - Rain Light Rain
5:20 PM 39.2 °F - 39.2 °F 100% 29.53 in 3.7 mi Variable 2.3 mph - N/A   Mostly Cloudy
5:50 PM 39.2 °F - 39.2 °F 100% 29.56 in 3.7 mi SW 2.3 mph - N/A   Mostly Cloudy
6:00 PM 38 °F - 37 °F 94% 29.57 in 4 mi SW 2.2 mph - - Rain Light Rain
6:20 PM 37.4 °F 33.8 °F 37.4 °F 100% 29.56 in 3.1 mi SW 4.6 mph - N/A   Mostly Cloudy
6:50 PM 39.2 °F 35.9 °F 39.2 °F 100% 29.56 in 3.1 mi South 4.6 mph - N/A   Mostly Cloudy
7:00 PM 38 °F - 36 °F 92% 29.59 in 3 mi South 4.5 mph - -   Mist
7:20 PM 39.2 °F 35.0 °F 39.2 °F 100% 29.59 in 4.3 mi South 5.8 mph - N/A   Mostly Cloudy
7:50 PM 37.4 °F 30.3 °F 37.4 °F 100% 29.59 in 6.2 mi South 10.4 mph - N/A   Partly Cloudy
8:00 PM 38 °F - 36 °F 90% 29.62 in 8 mi South 8.9 mph - -   Scattered Clouds
8:20 PM 39.2 °F 35.0 °F 39.2 °F 100% 29.59 in 6.2 mi South 5.8 mph - N/A   Mostly Cloudy
8:50 PM 39.2 °F 35.9 °F 39.2 °F 100% 29.62 in 6.2 mi SW 4.6 mph - N/A   Mostly Cloudy
9:00 PM 38 °F - 36 °F 92% 29.64 in 7 mi SW 4.5 mph - -   Mostly Cloudy
9:20 PM 39.2 °F 37.0 °F 39.2 °F 100% 29.59 in 6.2 mi SSW 3.5 mph - N/A   Mostly Cloudy
9:50 PM 39.2 °F 32.5 °F 39.2 °F 100% 29.62 in 6.2 mi South 10.4 mph - N/A   Mostly Cloudy
10:20 PM 39.2 °F 33.0 °F 39.2 °F 100% 29.62 in 6.2 mi South 9.2 mph - N/A   Mostly Cloudy
10:50 PM 39.2 °F 33.6 °F 39.2 °F 100% 29.62 in 6.2 mi South 8.1 mph - N/A   Mostly Cloudy
11:00 PM 39 °F - 37 °F 90% 29.65 in 7 mi South 8.9 mph - -   Mostly Cloudy
11:20 PM 39.2 °F 32.0 °F 39.2 °F 100% 29.62 in 6.2 mi SSW 11.5 mph - N/A   Mostly Cloudy
11:50 PM 41.0 °F 34.3 °F 39.2 °F 93% 29.62 in 6.2 mi South 11.5 mph - N/A   Mostly Cloudy